Starlink 11552

operational
NORAD ID: 62907 Int'l Des: 2025-027 Owner: SPXS Country: US Constellation: starlink
LEOCIRCULAR

About Starlink 11552

Description loading...

Live Position

Loading 3D Globe...

Upcoming Passes

Altitude History

Altitude vs Time

uPlot chart will show altitude changes over time

Two-Line Element Set

1 62907U 25027A 26034.49952490 .00211858 00000-0 16053-2 0 9999
2 62907 42.9993 193.8661 0001827 268.0822 91.9837 15.70951467 57815
Epoch: Feb 3, 2026 • Age: 15 hours

Current Status

Altitude 355.4 km
Velocity 7.70 km/s
Sub-Earth Point -1.60°S, 159.74°W
Launch Date Feb 8, 2025
Age 0.9 years
Type internet

Technical Details

Classification Payload
Mass 960.00 kg
Dry Mass 910.00 kg
Total Mass 960.00 kg
Length 0.30 m
Diameter 4.10 m
Span 29.00 m
Shape Box + pan
Manufacturer SPXS
Bus Type Starlink V2MD
Phase Status In Orbit
Owner/State SPXS/US

Large Constellations

Loading constellations...